ECMWFNIL_250_spd_000.txt.gz
Wind_Speed
71 71 72 73 74 74 75 76 78 79 80 82 83 85 86 86 85 82 80 80 82 83 83 84 86 87 88 89 90 91 93 95 97 99 99 100 101 101 101 100 99 99
75 74 74 74 75 76 77 79 81 81 83 84 86 87 88 89 89 88 86 85 85 86 86 87 88 89 90 90 91 93 94 96 98 101 102 103 104 104 104 103 102 101
78 78 78 79 79 80 82 82 83 84 85 85 87 89 90 91 92 92 92 91 90 89 89 90 91 91 91 93 94 96 97 98 100 101 103 104 105 106 106 106 105 103
82 83 84 85 85 86 86 86 86 87 87 88 90 91 92 93 93 93 95 95 95 94 94 94 94 94 95 96 98 99 100 101 102 103 104 106 107 108 108 107 106 104
86 87 88 89 89 89 89 89 90 90 90 91 91 93 94 94 94 95 96 97 99 99 99 99 99 99 100 100 101 102 103 104 104 105 106 108 109 109 109 107 106 105
89 90 90 91 91 92 92 92 93 93 93 93 94 95 96 97 96 97 97 99 101 102 103 103 102 102 102 103 104 104 105 105 105 105 107 109 110 110 109 108 106 105
92 92 93 93 93 94 95 96 97 96 95 95 96 97 98 99 100 101 101 101 102 103 104 104 104 103 104 105 106 107 108 107 107 107 109 110 111 111 110 108 106 105
95 96 96 96 96 96 97 99 100 99 99 99 99 99 100 101 103 104 103 102 103 105 106 107 106 106 107 107 108 109 110 109 109 109 110 111 112 111 109 107 105 104
98 99 99 100 99 99 101 102 102 102 103 103 103 103 103 103 104 105 105 105 106 108 109 109 109 109 109 109 110 111 111 110 110 110 111 111 110 109 107 106 105 104
100 100 102 104 104 104 105 105 105 105 107 108 109 109 109 108 107 108 109 110 111 110 110 111 112 112 112 111 111 111 111 110 110 110 110 109 108 107 105 104 104 103
101 101 103 106 108 108 108 108 109 110 111 113 114 114 114 113 111 111 112 113 113 112 112 113 114 114 113 113 112 112 111 110 110 109 108 107 106 105 104 104 104 103
102 103 105 107 109 109 109 109 111 112 114 116 117 117 117 116 115 115 115 115 116 115 115 115 115 115 115 114 112 110 108 107 106 106 106 106 106 105 104 104 104 103
103 104 106 109 110 110 110 111 112 113 115 116 117 118 118 118 118 118 118 119 119 118 117 116 116 116 115 112 108 105 103 102 102 103 104 104 104 104 104 103 103 103
101 103 104 106 107 108 110 111 112 113 115 116 117 117 118 118 119 119 119 119 119 118 118 117 116 115 112 108 105 103 101 100 100 100 101 101 102 102 102 103 103 103
96 96 97 98 99 100 103 107 110 112 114 116 117 117 118 118 119 118 118 119 119 119 118 116 114 112 109 106 103 101 100 100 100 100 99 100 100 101 101 102 102 102
96 95 95 94 93 94 96 99 103 106 110 112 113 113 114 114 115 115 116 117 117 117 115 113 111 109 106 103 101 100 100 100 100 100 100 99 100 100 101 101 101 102
99 98 97 95 94 94 95 95 96 99 101 104 106 108 109 110 110 111 112 113 113 113 112 111 109 106 103 101 100 100 100 100 100 100 100 99 99 100 100 100 101 101
102 101 100 100 101 101 102 101 99 99 100 102 104 106 107 108 109 109 110 111 111 111 111 109 106 103 100 100 100 100 100 100 100 100 99 99 99 99 99 100 100 100
109 109 108 109 110 111 111 110 109 108 109 109 110 110 110 110 110 109 109 109 110 110 108 106 103 101 100 100 101 101 101 102 101 100 99 99 99 99 100 100 98 96
118 119 118 118 118 118 118 117 117 118 119 119 118 117 116 114 112 111 111 111 111 110 107 105 105 104 104 104 103 104 104 104 103 101 100 100 100 100 99 98 96 94
125 126 125 125 124 124 123 122 123 124 124 124 122 121 119 119 118 117 117 118 116 113 110 110 110 110 108 107 106 106 106 105 104 103 102 101 101 100 98 97 95 94
127 127 125 124 124 124 123 123 123 123 122 121 121 121 121 122 122 123 123 122 119 116 115 115 114 112 110 108 108 107 107 107 106 105 104 103 102 100 98 97 96 96
124 121 120 118 117 117 117 117 117 116 116 117 118 119 120 121 122 124 124 123 120 117 117 116 114 113 111 110 109 108 107 108 107 105 104 102 101 100 100 100 99 98
118 116 114 113 112 110 110 110 111 112 113 114 115 116 116 118 120 121 122 121 119 117 117 116 115 113 112 111 110 109 108 108 106 104 103 102 101 102 102 102 101 99
113 112 111 109 108 107 108 108 109 110 111 112 112 112 113 115 116 118 119 119 118 116 116 115 114 113 112 112 111 110 109 107 105 103 102 102 102 103 103 102 101 100
110 110 109 108 107 106 107 108 108 109 109 110 110 109 110 111 112 114 115 116 115 115 115 114 114 113 112 112 111 109 108 106 105 104 104 104 104 104 103 101 100 99

ECMWFNIL_250_spd_003.txt.gz
Wind_Speed
76 76 77 77 76 76 75 75 74 74 74 73 73 74 76 78 79 80 80 81 81 81 81 81 81 81 81 82 82 82 83 84 85 86 87 88 89 91 92 92 92 93
76 77 77 78 78 78 77 77 76 75 76 77 77 78 79 81 82 82 83 84 84 85 86 86 86 87 87 87 87 87 87 86 87 88 90 90 92 93 95 95 96 96
77 78 78 78 78 79 79 78 78 77 78 79 81 82 83 84 84 85 86 87 88 88 89 90 91 91 91 92 92 92 92 91 90 90 92 93 95 96 97 99 100 100
79 79 79 80 80 81 81 80 80 81 81 82 84 86 86 87 88 89 90 91 91 92 92 94 95 95 95 95 96 97 97 96 95 95 95 97 98 99 100 101 102 103
84 83 83 84 84 85 85 85 86 86 86 87 88 89 89 90 90 92 93 95 95 95 96 97 98 99 99 99 99 100 101 100 99 100 100 101 101 102 102 103 104 104
91 91 91 91 91 91 91 91 92 92 91 92 92 93 93 94 95 96 97 98 98 98 98 99 101 102 102 103 103 104 104 104 104 104 105 106 106 106 107 107 106 106
97 98 98 96 95 95 95 96 98 99 98 98 98 99 100 100 101 102 102 101 100 100 101 102 103 104 105 106 107 107 107 108 108 108 109 109 110 110 111 110 110 110
100 100 101 100 99 99 99 100 103 104 105 105 105 105 106 106 107 107 107 105 104 103 104 105 106 107 108 108 109 110 110 111 111 112 112 113 113 113 113 114 114 115
104 104 104 105 106 105 105 106 107 108 110 110 111 111 111 111 112 112 111 110 110 110 110 109 110 111 111 111 112 112 113 113 114 115 116 116 116 116 116 117 117 117
106 107 109 111 111 111 110 110 111 111 112 113 114 115 115 115 115 115 115 115 115 114 114 113 113 113 113 113 114 114 114 115 116 116 117 118 118 118 118 118 117 118
105 108 111 113 114 114 114 113 113 114 114 114 116 117 118 118 118 117 117 117 116 115 115 115 114 114 114 114 115 115 116 116 116 116 117 117 118 118 118 118 119 119
106 107 109 110 112 114 115 115 115 115 115 115 117 118 119 118 118 119 118 117 116 116 115 114 114 113 113 114 114 115 116 116 116 116 116 116 116 116 116 117 118 118
109 109 110 110 112 113 114 116 116 116 116 116 118 119 120 119 119 119 118 116 115 114 112 110 110 109 108 109 109 110 111 111 111 112 113 114 114 114 114 115 116 117
110 111 112 112 113 114 115 116 117 117 118 119 120 121 121 120 119 118 117 115 113 110 108 106 104 101 100 101 102 104 105 104 104 105 107 109 110 111 112 113 114 115
110 111 112 113 115 116 117 118 119 120 121 121 121 121 119 118 117 116 115 113 110 108 107 106 104 101 99 100 101 103 104 105 105 105 105 106 106 107 108 109 111 112
109 110 112 113 116 118 119 120 122 122 122 121 120 118 117 115 114 113 112 111 109 109 109 109 108 107 106 106 107 109 110 110 110 110 110 109 108 108 109 109 110 109
109 110 111 112 114 117 119 120 121 122 122 120 116 114 113 113 112 111 109 108 108 108 109 109 108 109 110 111 114 115 116 116 116 116 115 114 112 112 111 110 108 106
104 106 107 108 111 114 116 118 119 120 119 117 113 111 109 109 109 108 106 105 105 105 106 106 107 109 111 114 117 118 118 118 118 117 116 114 112 110 109 107 105 103
99 100 101 103 104 105 107 109 110 112 112 111 110 109 108 107 106 106 105 104 104 104 105 106 109 111 115 117 118 118 117 116 116 115 112 110 108 106 104 102 101 99
99 98 98 97 98 98 100 102 103 104 106 106 107 108 109 109 109 108 107 105 106 107 109 111 114 117 120 120 117 115 114 114 113 112 110 108 106 104 102 100 100 99
106 103 102 101 101 103 104 105 104 105 106 107 107 109 111 112 113 111 110 110 111 112 114 117 120 123 122 118 113 111 112 113 112 111 110 108 106 104 102 101 101 101
114 112 111 111 111 111 111 110 108 109 110 110 111 112 115 116 117 117 117 117 117 118 120 123 125 124 119 113 109 109 112 113 113 112 111 110 108 105 103 103 102 101
119 119 119 118 118 118 117 116 115 114 114 116 118 119 121 122 124 124 124 122 121 122 125 126 124 119 113 110 109 110 112 113 114 113 112 111 109 106 104 104 103 101
122 122 123 124 124 124 124 124 123 122 121 122 124 125 126 126 127 127 126 124 123 124 125 124 119 113 111 110 110 110 111 113 114 114 113 111 109 107 106 105 104 102
122 124 126 128 129 131 132 132 131 129 127 127 128 129 129 129 130 130 128 127 126 125 123 119 114 111 109 109 109 110 111 113 114 113 112 111 109 107 106 105 105 104
118 120 123 126 129 131 133 133 133 132 131 131 132 132 133 133 133 132 130 127 124 121 118 115 112 110 109 108 109 110 111 112 113 113 113 112 110 107 106 106 106 105

ECMWFNIL_250_spd_006.txt.gz
Wind_Speed
76 76 76 76 76 76 77 77 77 76 76 76 76 78 78 79 80 80 81 81 81 82 82 82 82 81 80 79 78 78 78 78 78 77 77 77 77 78 79 80 82 83
80 80 80 80 80 80 79 78 78 78 78 78 78 79 80 81 82 83 85 85 86 86 86 85 85 84 83 83 82 81 82 83 83 83 83 82 82 83 83 84 85 86
86 85 84 85 84 83 82 81 80 80 80 80 80 80 81 81 83 84 85 86 87 87 87 87 87 86 86 86 85 85 86 87 88 88 88 88 88 88 89 89 90 91
95 93 90 89 88 87 85 84 83 83 83 82 82 81 82 83 85 85 86 87 87 87 88 88 88 88 88 88 88 89 89 90 91 92 93 92 92 92 93 93 95 96
102 101 99 95 93 92 91 89 88 87 87 87 86 86 86 86 88 89 90 89 89 88 88 89 89 90 91 92 92 93 93 94 95 96 96 96 97 97 97 98 99 100
105 105 104 102 98 96 95 95 95 94 93 93 94 93 93 92 91 92 93 93 92 92 92 94 95 96 97 97 97 98 98 99 100 101 101 101 101 101 102 102 103 104
107 107 107 106 104 102 100 100 101 101 100 100 100 100 99 97 95 95 96 97 97 97 98 99 101 101 102 102 102 102 103 104 105 106 106 106 106 106 107 107 108 108
108 109 109 109 108 108 107 107 106 106 107 107 107 106 104 102 100 99 99 101 102 102 102 103 104 105 106 106 106 106 107 108 110 110 111 111 112 112 112 113 113 113
111 111 112 112 112 113 113 113 112 111 111 111 111 111 109 107 105 105 105 105 105 105 106 107 108 109 110 111 111 112 113 114 114 115 115 116 116 116 117 117 117 118
115 115 116 116 116 116 116 116 115 115 114 114 114 114 113 112 111 111 111 111 110 110 110 111 113 114 115 115 116 117 117 118 118 119 119 120 120 120 120 120 120 120
118 118 119 120 120 120 120 119 118 117 117 117 117 116 116 116 115 115 115 115 115 115 115 115 116 117 118 119 119 120 120 120 121 121 122 122 123 122 122 122 122 122
119 120 121 121 122 121 121 121 120 119 119 119 119 120 119 119 118 118 118 118 119 119 119 118 119 119 120 121 121 122 122 123 123 123 123 124 124 124 123 123 122 122
117 119 121 122 122 122 121 121 120 120 120 120 121 122 122 122 121 121 121 121 122 122 122 121 120 120 121 122 123 123 124 125 125 125 124 125 125 125 124 123 122 122
114 117 118 119 119 119 119 119 118 118 118 119 119 121 122 122 123 123 123 123 123 123 123 122 122 122 122 123 124 124 125 125 125 125 125 125 125 125 125 124 123 122
111 113 114 114 113 113 113 114 115 116 117 117 118 119 120 120 121 121 121 122 122 122 122 123 123 123 124 124 125 125 125 124 124 124 125 125 126 126 126 125 124 123
108 110 111 110 109 108 107 108 109 111 114 115 116 117 118 119 119 120 120 120 121 122 122 122 123 123 124 124 125 125 125 125 124 124 124 125 126 126 126 126 126 125
104 106 107 107 106 105 105 105 105 106 108 110 112 114 115 117 118 119 119 120 121 122 123 123 123 124 124 125 126 126 126 126 125 125 126 126 127 127 128 128 128 126
100 102 103 104 104 104 104 104 104 104 104 105 107 109 111 113 115 116 117 118 120 121 123 124 124 125 125 126 127 128 128 128 127 127 127 127 127 127 127 127 125 123
99 100 101 101 102 102 102 103 103 103 103 103 104 105 106 107 109 110 112 114 116 118 120 122 123 124 125 126 127 128 128 127 126 125 124 122 121 120 119 119 118 118
101 101 101 101 101 101 102 102 102 103 102 102 103 103 104 104 104 105 106 108 110 112 113 115 116 117 117 118 119 119 119 119 118 117 116 114 113 113 112 113 114 115
104 103 103 103 103 102 102 102 102 103 103 102 102 102 103 104 104 104 105 105 107 108 109 110 110 109 109 110 110 110 109 109 109 109 109 108 108 108 110 113 115 115
106 106 106 106 105 104 104 104 104 105 105 104 103 103 103 104 104 105 106 107 108 109 110 110 110 109 108 108 108 108 107 106 106 107 106 106 107 109 113 116 117 116
108 109 110 110 108 107 106 106 106 107 107 107 106 106 106 106 106 108 109 110 111 111 112 113 112 111 110 110 109 109 108 107 108 108 109 110 112 116 119 120 120 118
108 109 111 112 111 109 108 107 107 108 108 109 109 109 109 109 109 110 111 112 113 113 114 114 113 111 111 111 111 111 110 109 110 112 114 117 120 122 123 123 122 120
107 109 111 112 112 111 109 107 107 108 109 109 110 110 111 111 112 113 114 114 115 115 114 114 114 113 113 113 113 114 113 113 115 117 120 123 125 126 126 125 123 121
106 107 109 111 112 111 110 108 107 108 108 109 110 111 111 112 114 115 116 116 116 116 115 115 116 116 117 117 117 118 117 118 120 123 125 128 129 129 128 125 123 122

ECMWFNIL_250_spd_009.txt.gz
Wind_Speed
86 87 87 87 86 86 85 85 84 82 81 80 80 80 79 77 75 74 74 75 76 77 77 77 77 77 76 76 75 74 74 75 75 76 76 77 78 78 78 77 77 77
88 88 89 90 91 91 91 90 89 88 86 85 84 84 84 83 81 80 80 79 79 79 80 80 80 81 80 80 79 78 77 77 77 77 77 78 79 80 80 80 80 80
94 92 91 92 92 93 94 95 95 94 93 91 90 89 88 88 87 86 85 84 84 84 83 83 83 84 84 83 83 82 81 80 80 79 79 79 80 81 82 82 82 83
100 99 97 97 97 97 97 99 100 100 99 97 96 94 92 91 91 90 90 89 89 89 89 89 88 88 88 87 86 86 85 84 84 83 82 82 82 83 84 85 85 86
106 105 104 104 104 105 104 104 105 105 105 104 102 100 98 96 94 94 94 94 93 93 94 94 94 93 93 92 92 91 89 89 89 88 87 86 86 86 86 88 88 89
112 112 111 110 110 110 111 111 111 111 110 109 108 106 104 102 100 98 98 98 98 97 97 97 98 98 98 97 97 96 95 94 94 93 91 91 90 90 90 91 92 93
116 116 116 114 112 112 112 113 115 116 116 115 113 111 109 107 106 104 103 103 102 101 100 101 101 102 102 102 101 101 100 99 98 98 97 96 97 97 96 96 96 97
118 119 119 116 114 113 113 114 116 119 121 120 119 117 115 113 112 110 109 108 107 106 104 104 104 105 106 106 105 105 104 103 102 102 102 102 102 103 103 102 102 102
120 120 120 118 115 113 113 114 116 119 122 123 122 122 121 118 116 115 114 113 112 111 109 109 108 109 110 111 110 110 109 108 107 106 106 106 107 107 108 107 106 106
121 120 119 117 116 114 113 114 115 117 120 123 124 124 123 121 119 117 116 116 116 115 115 114 114 114 115 115 114 114 113 112 111 110 109 109 110 111 112 112 111 110
117 118 118 117 116 116 115 115 116 117 118 120 123 124 124 123 122 120 118 117 117 118 118 119 119 119 118 118 118 117 116 116 115 114 114 113 113 114 115 115 115 114
113 115 117 118 118 118 117 117 118 118 118 118 120 122 123 123 123 122 121 119 119 119 120 121 121 121 121 121 121 121 120 120 119 119 119 118 117 116 116 118 118 118
114 115 116 117 118 118 118 118 118 119 119 118 118 119 120 121 122 121 121 121 121 121 121 122 123 124 124 123 123 123 123 123 123 123 123 122 120 119 118 119 119 119
115 115 115 115 115 116 117 117 117 118 119 119 118 117 117 119 120 120 120 121 121 121 121 121 123 124 125 125 126 126 126 126 126 126 126 125 124 122 121 121 121 120
114 114 114 113 113 113 114 115 116 117 118 119 119 118 117 117 118 118 119 119 119 119 119 120 121 123 124 126 127 127 127 127 127 127 128 127 127 125 124 123 122 121
111 112 112 111 111 111 111 112 113 115 117 118 119 119 118 117 117 117 117 117 117 116 117 118 119 120 122 123 125 126 126 126 126 126 126 126 126 124 122 121 119 118
109 109 108 108 108 108 108 109 110 112 115 117 119 119 119 118 118 117 116 116 116 115 115 115 115 116 118 119 120 121 123 124 124 124 123 123 121 119 117 116 115 115
107 107 106 107 106 107 107 108 109 110 112 114 116 118 119 119 118 116 115 115 114 114 113 113 112 113 115 115 116 117 118 120 121 121 121 119 117 115 113 112 112 112
107 106 106 106 107 107 107 108 109 110 111 112 114 115 117 119 118 116 115 115 114 113 112 111 111 111 113 114 115 115 115 116 117 118 118 117 115 113 111 110 109 109
107 107 107 107 107 108 108 109 109 110 111 112 113 113 115 116 117 117 116 116 115 113 112 110 110 110 111 112 113 114 114 114 115 115 115 114 113 112 111 109 109 108
107 108 109 108 108 109 110 110 111 111 111 112 113 113 114 114 115 116 116 117 117 116 114 111 110 109 110 111 112 112 113 114 115 115 114 113 113 111 110 108 108 108
106 108 108 109 109 109 110 111 112 112 112 112 112 113 114 114 114 114 115 116 117 117 116 114 111 110 111 111 111 111 112 113 114 114 114 113 113 111 110 109 108 109
105 107 107 108 109 109 110 111 112 113 113 113 112 112 113 114 113 113 114 115 116 117 116 115 113 112 112 111 111 111 112 113 114 114 114 113 113 112 112 111 111 111
104 106 107 107 108 109 110 110 112 113 113 113 113 112 112 113 112 113 113 114 115 115 114 113 112 112 112 112 111 111 112 113 114 114 114 113 112 112 112 112 112 113
104 105 106 107 108 109 110 111 112 113 114 114 113 113 112 112 111 111 112 112 113 113 113 111 110 110 111 111 110 111 112 113 114 114 114 113 113 112 112 112 112 113
104 104 105 106 107 108 109 111 112 114 115 116 115 114 113 112 112 111 111 111 112 112 111 110 109 109 109 109 109 110 112 113 113 113 113 113 112 112 112 112 112 111

ECMWFNIL_250_spd_015.txt.gz
Wind_Speed
99 99 98 98 97 97 97 97 97 98 98 98 98 99 100 101 102 101 100 99 98 97 96 95 94 94 95 95 95 94 93 92 91 91 91 90 90 90 90 90 89 88
105 105 105 104 104 103 103 103 103 104 104 103 102 102 103 105 106 106 105 104 104 104 103 101 100 99 99 99 98 98 97 96 95 95 95 94 93 93 93 93 93 93
110 111 111 111 111 110 110 110 110 110 111 111 110 109 108 108 109 111 110 109 109 109 109 108 107 105 104 103 103 102 101 100 100 100 99 98 97 97 96 96 97 97
115 116 116 117 117 117 116 116 116 117 117 118 118 118 116 115 114 114 115 115 114 113 113 112 112 111 110 109 108 106 105 104 104 104 103 102 101 100 99 99 99 99
120 121 121 121 122 122 123 123 122 123 123 124 124 124 124 124 122 120 120 120 120 118 116 115 115 114 114 114 113 112 110 108 108 108 107 105 104 103 103 103 103 102
126 126 126 127 127 128 128 129 129 128 128 129 130 130 130 130 129 127 125 124 124 123 121 119 118 118 117 117 117 116 115 113 112 112 112 111 110 108 107 106 106 106
131 132 132 132 133 133 133 134 134 134 134 134 134 135 135 135 134 131 129 127 127 127 126 123 122 121 121 120 120 119 119 118 117 116 116 116 116 115 113 111 110 109
135 135 136 137 137 138 138 139 139 139 138 138 138 138 138 137 136 134 131 129 128 129 129 127 126 125 124 124 124 123 122 122 121 120 119 119 119 119 119 118 117 115
138 138 138 138 139 140 141 142 142 143 142 141 139 139 139 138 137 135 133 130 129 129 129 129 128 127 127 127 127 127 126 125 125 124 123 123 122 122 122 122 122 120
141 141 140 140 140 140 141 141 142 142 142 140 138 137 136 136 135 134 132 131 130 130 130 130 130 130 130 130 130 130 130 129 128 128 127 126 126 125 125 126 126 125
140 140 140 140 140 139 139 138 138 138 137 136 135 134 133 132 132 131 131 130 130 130 130 131 131 131 131 131 131 131 131 131 130 130 130 130 129 129 129 130 129 129
134 135 136 136 136 136 136 135 134 134 133 132 131 131 131 130 130 129 129 129 129 129 129 130 130 130 130 131 131 132 132 131 131 130 131 131 131 131 132 132 131 131
128 129 130 131 132 133 132 132 131 131 131 131 130 129 129 129 129 129 129 129 129 129 129 128 128 128 128 129 129 130 131 131 130 130 131 131 132 133 133 133 132 132
124 125 125 126 128 129 130 130 129 129 129 130 130 129 129 128 128 128 128 128 129 129 128 128 127 127 126 126 126 127 127 128 129 129 130 131 131 133 134 134 133 132
121 122 122 123 125 126 127 128 128 128 128 128 128 129 129 128 128 127 127 127 128 128 127 127 126 126 126 126 125 124 124 125 125 127 128 129 130 131 133 134 134 133
117 119 120 121 123 124 125 127 127 127 127 126 127 127 128 128 128 127 126 126 126 126 126 126 125 124 124 125 125 125 124 124 123 124 125 127 128 130 131 132 133 133
114 116 117 119 121 122 123 125 126 127 127 126 126 126 126 126 126 126 126 125 125 125 125 125 125 124 123 124 124 125 124 124 123 123 123 124 125 127 129 130 131 132
113 114 115 117 119 120 121 123 124 125 126 126 125 125 124 124 124 124 125 125 124 124 124 125 125 125 124 123 123 124 124 124 123 123 123 123 123 124 126 127 129 130
110 112 114 115 117 119 120 121 122 123 124 125 125 125 124 124 123 123 123 123 123 123 123 123 124 125 125 124 123 123 124 124 123 122 122 122 122 123 123 124 125 126
107 109 110 112 114 116 118 119 120 122 123 124 124 124 124 124 123 122 122 122 122 122 122 122 122 124 125 124 123 122 123 123 123 122 122 122 122 123 123 123 123 124
105 106 107 109 111 113 115 116 118 119 121 122 122 123 123 123 123 123 122 121 121 121 121 120 120 122 123 124 123 123 122 122 122 122 121 121 122 123 123 124 124 124
103 103 104 105 107 109 111 113 115 116 118 119 120 121 121 121 122 122 122 122 121 120 120 119 119 121 122 122 122 122 122 122 120 120 121 121 121 122 123 124 125 125
101 102 102 103 104 106 108 109 111 113 115 117 118 119 119 119 119 120 121 121 121 121 120 118 118 119 121 121 121 121 121 121 120 119 119 120 120 122 123 124 125 125
100 101 101 102 102 104 105 106 108 109 111 113 115 116 117 117 118 118 118 119 120 120 120 119 117 117 119 121 121 120 120 119 118 118 117 118 119 120 122 123 123 124
99 99 100 101 101 102 103 104 105 106 108 110 112 113 114 115 116 116 116 117 118 118 119 119 117 116 117 120 120 121 121 119 117 116 115 115 116 118 120 121 121 122
97 98 98 99 100 100 101 102 103 104 105 107 109 111 112 112 113 114 114 115 116 117 117 118 118 116 117 118 120 120 121 120 118 115 113 112 114 116 118 119 119 119

ECMWFNIL_250_spd_021.txt.gz
Wind_Speed
100 99 98 98 98 98 99 100 100 100 100 101 101 101 102 102 101 101 100 100 100 99 99 99 99 99 100 100 100 99 99 99 98 98 98 98 98 97 96 96 95 94
106 106 105 104 103 102 101 101 101 101 101 102 103 104 105 106 106 106 105 105 104 104 104 103 103 103 104 104 104 104 104 103 103 103 102 102 102 102 101 101 100 99
111 111 111 111 110 110 109 108 107 106 106 106 106 106 106 107 108 109 108 108 108 108 108 108 108 108 108 108 108 108 108 107 107 107 106 106 106 106 106 105 105 104
118 117 117 117 116 116 116 115 114 114 113 112 112 112 111 111 111 111 111 111 111 111 111 112 112 112 112 113 113 113 112 111 111 111 110 110 110 110 110 109 109 108
124 124 124 124 124 123 123 122 121 120 120 119 119 119 118 118 118 117 117 117 116 116 116 116 115 115 115 115 116 116 116 116 115 115 114 114 114 113 113 113 112 112
132 131 130 130 130 130 130 129 128 127 126 126 125 125 125 125 124 124 124 123 123 123 122 122 121 121 120 119 119 119 119 120 120 119 118 118 118 117 116 116 116 116
137 137 137 136 136 136 136 136 136 135 134 133 132 132 131 131 131 131 130 130 129 129 128 128 128 127 127 126 126 125 125 125 126 125 124 123 122 121 121 120 119 119
138 140 141 142 142 142 142 142 141 141 141 140 140 139 138 137 137 136 136 136 135 135 134 134 134 134 134 134 133 133 133 132 132 131 130 129 127 126 126 125 124 123
139 141 142 143 144 146 146 147 147 147 147 146 146 145 145 144 143 143 142 141 141 140 140 140 139 139 139 140 139 139 138 138 137 137 136 134 133 133 132 132 131 130
140 141 143 144 145 146 147 149 150 151 151 151 152 151 151 151 150 149 148 147 147 146 146 145 145 145 145 145 144 144 143 142 142 142 142 141 140 140 139 139 138 137
138 140 141 143 145 147 148 149 150 152 153 153 154 155 156 156 156 155 154 154 153 152 151 151 150 150 149 149 149 149 148 148 147 147 147 147 146 146 145 144 144 143
132 134 136 138 140 143 145 147 149 151 153 154 155 156 157 158 159 159 159 159 158 157 157 156 155 154 154 153 153 153 153 153 152 152 153 152 152 151 150 150 149 149
126 127 129 131 133 135 137 140 142 145 148 151 155 157 158 159 160 160 161 161 162 161 161 160 160 159 158 158 158 157 157 157 157 157 157 157 157 157 156 155 154 154
123 124 125 126 127 128 130 132 134 136 139 143 147 151 155 158 160 161 162 163 163 163 164 163 163 163 162 162 162 162 161 161 161 160 160 160 160 160 160 160 159 159
122 123 123 123 124 124 125 126 128 129 131 134 136 140 144 149 153 157 160 162 163 164 165 165 165 165 165 165 166 166 165 165 164 164 164 164 164 164 164 164 164 163
120 121 122 122 123 123 123 124 124 125 126 127 129 131 133 136 140 144 148 152 156 159 162 163 164 165 166 167 167 168 168 168 168 167 167 166 166 166 165 165 164 164
116 117 119 120 121 121 122 122 122 123 123 123 124 125 126 128 129 131 134 137 141 144 148 151 154 156 158 160 162 164 165 165 165 165 164 163 162 161 160 159 157 156
110 111 112 114 115 117 117 118 119 120 120 121 122 122 123 123 124 125 127 128 130 132 134 136 138 141 144 146 149 151 153 153 153 153 152 151 149 147 146 145 144 143
103 104 105 107 109 110 111 112 113 114 115 116 117 118 119 120 121 122 123 124 126 127 128 128 129 131 133 136 138 140 142 143 142 141 140 139 137 135 133 133 133 134
100 100 101 102 103 104 105 106 108 109 110 111 112 112 113 114 116 117 118 120 121 123 123 123 124 125 127 130 131 133 134 136 136 135 133 131 130 129 128 127 126 127
98 98 99 99 99 100 100 101 103 104 105 106 107 108 109 110 112 113 114 115 116 118 118 119 119 121 123 125 126 127 128 129 130 129 128 126 125 124 123 122 122 122
97 97 97 97 96 97 97 98 99 99 100 101 102 103 105 106 108 108 109 110 111 113 114 114 115 117 119 122 123 124 125 125 125 124 123 122 120 119 119 119 118 118
95 95 94 94 95 95 95 95 96 96 96 97 98 99 100 101 102 102 103 105 106 108 110 110 110 112 115 118 119 120 121 122 122 121 120 119 118 117 117 117 117 116
92 92 91 92 93 93 93 93 93 94 94 95 95 94 94 95 96 97 98 100 102 103 105 106 106 107 111 114 115 116 118 118 118 117 117 116 115 115 115 116 116 115
89 89 89 90 90 91 91 91 92 93 93 93 92 92 91 91 93 93 93 95 98 100 101 102 103 104 106 109 110 111 113 114 113 113 112 112 113 113 113 113 113 113
88 88 88 89 89 89 90 91 91 91 91 91 91 91 90 90 90 91 91 93 95 97 98 99 100 100 102 104 106 106 108 109 109 109 108 108 109 109 109 109 109 110

ECMWFNIL_250_spd_024.txt.gz
Wind_Speed
110 109 108 107 106 105 104 105 105 106 107 109 110 111 112 113 113 113 113 112 112 111 110 109 107 106 105 105 104 103 103 102 102 101 100 100 100 99 99 99 98 98
116 116 115 115 113 112 111 110 109 109 110 110 111 112 113 114 115 116 117 117 117 116 115 114 113 112 110 109 109 108 107 107 106 106 105 105 105 104 104 104 103 103
121 122 122 121 121 120 118 117 116 115 115 114 114 114 114 115 115 116 117 118 119 120 120 120 119 118 117 116 115 114 113 112 112 111 110 110 110 110 109 109 108 108
122 124 126 127 127 127 126 125 124 123 122 121 120 119 118 118 117 117 117 117 118 119 121 122 122 123 123 122 122 121 120 119 119 118 117 116 115 115 114 114 114 113
123 124 126 128 130 132 132 132 131 130 129 128 127 125 124 123 123 122 121 121 120 120 121 121 122 123 124 125 126 126 126 126 126 125 123 122 121 120 119 119 118 118
124 126 127 128 130 132 134 135 136 136 136 135 134 133 131 131 130 129 128 127 127 126 126 125 125 124 124 124 125 126 127 128 129 129 128 127 126 125 124 124 123 123
120 124 127 130 131 133 134 135 137 139 140 141 140 140 139 138 137 136 135 134 134 133 132 132 132 131 131 130 129 128 128 128 128 129 129 129 129 129 129 128 128 127
116 119 122 126 129 133 135 137 138 139 141 142 144 145 145 144 144 143 142 141 141 140 139 139 138 138 138 138 137 136 135 134 133 132 132 131 131 131 131 132 131 131
113 116 118 121 123 127 131 135 138 140 142 143 144 146 147 148 148 149 149 149 148 148 147 146 146 145 144 144 143 143 143 142 142 141 139 138 137 136 135 135 135 134
111 113 116 118 120 122 124 127 131 135 139 142 145 147 149 150 150 151 152 152 153 153 153 153 153 152 151 151 150 149 149 148 148 148 147 146 145 143 142 141 140 139
111 113 114 116 118 119 121 123 124 127 130 134 138 142 146 149 152 153 154 154 155 155 156 157 157 157 157 157 157 156 156 155 154 153 152 152 151 150 149 148 147 145
111 112 113 115 116 118 119 121 122 123 124 126 128 131 135 140 144 148 151 154 156 157 158 158 159 159 160 160 160 161 161 160 160 159 158 158 157 156 155 154 153 152
110 111 112 114 115 116 118 119 120 121 122 123 124 125 127 129 132 136 140 144 147 151 154 156 158 160 161 162 162 163 163 163 162 162 162 161 161 161 160 160 159 158
107 109 110 112 113 115 116 117 118 119 120 121 122 123 124 125 126 128 130 132 135 138 142 145 149 152 156 159 161 163 164 165 164 164 163 163 162 162 162 162 162 162
104 105 107 108 110 111 113 114 116 117 119 120 121 122 123 123 124 125 126 127 129 130 132 134 136 139 142 146 151 155 158 161 162 163 164 163 163 163 162 163 163 163
100 101 103 104 106 107 109 110 112 113 115 116 118 119 120 121 122 123 124 125 125 126 127 128 129 131 133 135 138 141 143 146 149 152 154 156 158 159 161 162 163 163
96 98 99 101 102 104 105 106 107 109 110 112 113 115 116 117 118 119 121 122 122 123 123 124 126 127 129 130 131 132 133 134 135 137 139 142 144 147 150 153 156 159
94 95 96 97 99 100 101 102 104 105 106 108 109 110 111 112 113 114 115 117 118 118 118 120 122 124 125 126 126 127 128 128 128 128 129 131 132 134 136 139 142 146
93 93 94 95 96 97 98 99 100 101 103 104 105 107 107 108 109 111 112 113 113 114 114 115 117 119 121 121 121 122 124 124 123 122 122 123 125 127 128 130 131 133
93 93 93 93 94 94 95 96 97 98 99 100 101 101 103 104 105 107 108 109 110 111 111 113 115 116 117 117 118 119 119 120 119 117 117 117 119 120 122 124 125 127
92 92 92 93 93 93 93 94 94 95 95 96 96 97 98 99 100 101 102 103 105 107 108 109 111 113 114 114 115 116 117 116 115 114 114 114 114 116 118 119 120 122
92 92 92 92 92 92 93 93 93 93 93 93 93 94 94 95 96 96 97 98 100 101 102 102 104 106 108 109 111 112 113 113 112 112 112 112 113 114 115 115 116 117
91 91 91 91 92 92 92 92 93 93 92 92 91 92 93 93 93 94 95 96 97 98 98 97 98 101 102 103 104 106 107 107 108 109 110 110 111 112 112 113 113 114
90 90 90 90 91 91 91 92 92 92 91 91 91 91 91 92 92 93 94 95 95 95 95 95 96 98 99 99 100 101 101 101 102 103 104 105 106 108 109 110 110 111
88 88 89 89 89 90 90 91 91 91 90 90 90 90 90 91 92 92 93 93 94 93 94 94 95 96 97 98 98 98 98 98 98 98 99 100 101 102 103 105 105 107
87 87 87 88 88 89 89 90 90 90 90 90 90 90 89 90 92 92 91 91 92 92 93 94 94 95 95 96 97 97 96 96 95 95 96 96 96 97 98 100 101 102

ECMWFNIL_250_spd_027.txt.gz
Wind_Speed
98 98 99 100 100 99 98 97 97 99 102 105 108 112 116 118 118 118 118 117 116 117 117 118 119 120 120 120 120 120 119 119 118 118 117 116 115 114 113 112 111 110
99 99 100 101 101 102 102 101 99 99 101 104 107 110 115 119 121 122 122 122 122 121 121 121 122 122 123 124 124 124 123 123 122 122 121 120 120 119 118 117 116 115
101 101 102 102 103 104 104 104 103 102 103 104 106 109 112 117 122 125 126 126 127 127 126 125 125 126 126 126 127 128 128 127 127 126 125 125 124 123 122 121 120 119
103 104 105 105 105 105 106 106 105 105 105 106 107 109 112 115 119 124 128 130 131 131 131 131 130 129 129 129 130 130 131 131 131 130 130 129 128 127 127 126 125 124
107 107 107 107 107 107 107 107 107 107 107 107 108 110 113 116 118 121 126 130 133 134 135 135 135 135 134 134 134 134 134 134 134 134 133 133 133 132 131 131 130 129
109 109 109 108 108 108 107 107 108 108 108 108 109 110 112 115 119 122 125 128 132 136 138 139 139 139 139 139 138 138 138 137 137 137 136 136 136 136 136 135 134 133
111 111 110 109 109 108 108 108 108 108 109 109 110 112 113 114 117 121 125 128 130 134 138 141 143 143 143 143 143 143 142 142 141 141 140 139 139 139 139 139 138 137
113 112 111 110 109 108 108 108 108 109 109 110 111 113 114 115 117 119 122 126 129 132 135 140 144 146 147 147 147 147 147 146 146 145 144 143 142 142 142 141 141 140
113 112 111 110 109 108 108 108 108 108 109 110 111 113 114 115 117 119 121 123 126 129 132 135 139 144 148 150 150 150 150 150 150 149 149 148 147 146 145 145 144 143
112 111 111 110 109 108 107 106 106 107 107 108 110 111 113 114 116 118 120 122 124 126 128 130 133 136 141 145 149 151 152 152 152 152 152 152 151 150 150 149 148 147
107 107 106 106 105 104 104 103 103 103 104 105 106 108 110 112 114 116 118 120 122 124 126 128 129 131 132 135 139 144 147 150 152 154 154 154 154 154 154 154 153 152
100 100 100 100 100 100 100 100 100 100 100 101 103 104 106 108 111 113 115 117 119 121 123 125 127 128 129 129 131 133 136 140 144 148 151 154 155 156 157 157 157 157
95 95 96 96 96 96 96 97 97 97 98 99 100 102 103 105 107 109 111 113 116 118 120 122 123 125 127 127 128 128 129 130 133 136 140 144 149 152 155 157 158 159
93 93 93 93 93 93 94 94 95 95 96 98 99 100 101 102 104 105 107 110 112 114 116 118 120 122 123 124 125 126 127 127 127 128 130 133 136 141 146 150 154 157
92 92 92 92 92 92 92 92 93 94 95 96 97 98 99 100 101 103 104 106 108 110 112 114 116 118 119 121 122 122 124 124 124 125 126 127 128 131 134 138 143 147
91 91 91 91 91 91 91 92 92 93 94 95 96 97 98 98 100 101 102 103 105 107 109 111 112 114 115 117 118 119 120 121 121 121 122 123 124 125 127 130 133 136
91 91 90 90 91 91 91 91 92 93 93 94 95 96 97 98 99 100 101 102 103 104 106 108 109 110 112 113 114 115 116 116 116 117 118 119 121 122 123 125 127 129
91 91 91 90 90 90 90 91 91 92 92 93 94 95 95 97 98 99 100 101 101 102 103 104 106 107 108 110 111 112 113 112 112 113 114 116 117 118 119 120 122 124
92 91 91 90 90 90 89 90 90 90 91 91 92 93 94 95 96 97 98 99 99 100 101 102 103 104 106 107 108 109 109 109 109 109 110 111 113 115 116 116 117 118
90 89 89 88 88 88 88 88 88 88 88 89 89 90 91 92 93 94 95 96 96 97 97 98 100 101 103 104 105 105 106 106 106 106 106 107 109 110 111 112 113 113
87 87 87 87 86 86 86 86 86 86 87 87 87 88 88 90 90 91 92 92 93 93 94 95 96 98 99 100 101 102 102 102 102 102 103 105 106 107 108 108 109 109
87 87 86 86 86 86 86 86 86 86 86 86 86 87 88 88 88 89 89 90 91 91 91 92 94 95 96 97 98 98 98 98 98 99 100 101 103 104 105 105 106 107
88 88 88 88 88 87 87 87 87 87 87 87 87 87 88 88 88 88 88 89 89 90 90 91 92 93 94 95 95 95 95 94 95 95 96 97 98 100 101 102 103 104
88 88 88 88 88 88 88 88 88 88 87 87 87 87 87 88 88 88 88 89 89 89 90 89 90 92 93 93 93 93 92 92 92 92 93 93 95 96 98 99 99 101
88 88 88 88 88 88 88 88 88 88 87 87 87 86 86 87 87 87 87 88 89 89 88 88 89 91 92 92 91 91 90 90 89 89 90 91 92 93 95 96 97 98
88 87 87 87 87 87 87 88 87 87 87 87 86 86 86 86 86 86 86 87 88 88 88 88 89 89 90 90 89 88 88 87 87 86 87 87 89 91 92 94 95 95

ECMWFNIL_250_spd_030.txt.gz
Wind_Speed
89 90 90 90 91 91 92 93 94 95 96 98 99 99 100 101 101 102 102 103 104 106 107 109 111 112 112 112 113 115 116 117 119 121 123 124 124 124 124 124 123 123
90 90 90 90 91 91 92 93 94 95 97 98 99 101 102 102 103 103 104 105 106 107 109 110 111 113 114 114 114 115 116 118 120 122 124 126 127 128 128 128 128 127
91 91 91 91 91 92 93 94 95 96 97 98 100 101 103 104 105 106 107 108 109 110 111 112 113 114 116 117 117 117 117 118 120 123 125 127 129 131 131 131 131 131
93 92 92 92 93 93 94 95 96 97 98 99 100 102 103 105 107 108 110 111 112 113 114 115 116 117 118 119 120 121 120 120 120 123 125 128 130 132 133 135 135 135
94 94 94 94 94 95 96 96 98 99 100 101 102 103 105 106 108 110 112 113 115 116 117 119 119 120 121 122 122 123 123 124 123 124 125 128 131 133 134 136 137 138
96 96 95 95 96 96 97 98 99 100 101 102 103 105 106 107 109 111 112 114 116 117 118 120 121 122 122 123 124 124 125 126 126 126 126 127 130 133 135 136 138 140
98 98 98 98 98 98 99 100 101 101 102 103 104 105 106 107 109 110 112 113 115 116 118 119 120 121 122 123 124 125 125 126 127 128 128 129 131 133 136 137 138 139
100 100 100 100 100 101 102 102 103 103 104 105 105 106 106 107 108 109 110 111 113 114 115 117 118 119 120 122 123 124 125 126 127 128 129 130 132 134 136 138 139 139
101 101 101 102 102 103 103 103 104 104 104 104 105 105 105 105 106 106 107 108 109 110 111 112 113 115 116 118 119 120 122 123 125 126 127 128 131 133 135 138 139 139
101 101 101 101 101 101 101 101 101 101 100 100 100 100 101 101 101 101 102 102 103 104 105 106 107 109 110 111 113 114 116 118 120 122 123 125 127 129 132 135 137 139
99 99 98 98 97 97 97 97 96 96 96 96 96 96 97 97 97 98 98 99 100 100 101 102 103 104 105 106 108 109 110 112 114 116 118 120 122 125 127 130 133 135
96 94 93 93 92 92 93 93 93 93 93 94 94 95 95 96 96 97 97 98 98 99 100 100 101 102 103 103 104 105 106 107 109 110 112 114 117 119 122 125 127 130
92 91 90 90 90 90 90 91 91 92 92 93 94 94 95 95 96 97 97 97 98 98 99 100 100 101 102 102 103 103 104 105 106 107 108 110 112 114 117 119 121 124
90 90 89 89 90 90 90 91 91 92 93 94 94 95 95 96 96 97 97 97 98 98 99 99 100 100 101 102 102 102 103 103 104 105 106 107 108 110 112 114 116 118
91 90 90 91 91 91 91 92 92 93 93 94 94 95 95 96 96 97 97 98 98 99 99 99 100 100 101 101 101 102 102 102 103 104 104 105 106 107 109 110 111 113
91 91 91 91 92 92 92 92 92 93 93 93 93 94 94 95 95 96 96 97 97 98 98 99 99 100 101 101 101 101 101 101 102 102 103 104 104 105 106 108 109 109
92 92 91 91 91 91 91 91 91 91 91 91 92 92 92 93 93 94 94 94 95 95 96 97 98 99 99 100 100 100 100 100 101 101 102 103 103 104 104 105 106 107
92 91 91 90 90 90 90 90 90 90 90 90 90 90 90 90 91 91 92 92 93 93 94 95 96 97 97 98 98 98 98 98 98 99 100 101 102 102 102 103 104 105
92 91 91 90 90 90 90 89 89 88 88 88 88 88 88 89 89 90 90 90 91 91 92 93 94 95 96 96 96 96 96 96 95 96 97 98 98 99 100 101 102 103
92 91 91 90 90 90 89 88 88 87 87 87 87 87 88 88 88 88 88 89 89 89 90 90 92 93 94 94 94 94 95 94 94 94 95 95 96 96 97 98 99 100
92 91 91 90 90 89 88 87 86 86 86 86 87 87 87 88 88 87 87 88 88 88 88 88 90 91 91 92 92 92 93 92 92 92 93 94 94 95 95 96 97 99
91 91 90 89 89 88 87 87 87 87 87 87 87 87 87 87 87 87 87 87 87 87 87 87 88 89 90 90 90 90 90 89 89 89 90 91 92 93 94 94 96 98
91 91 90 89 88 88 87 87 87 87 87 87 87 87 87 87 87 87 87 87 87 86 86 86 87 88 88 88 88 88 87 86 85 85 86 87 88 89 91 92 95 97
92 92 91 90 89 88 88 88 87 87 87 87 87 87 87 87 87 87 87 86 86 86 85 85 85 86 86 86 86 85 83 82 81 81 81 82 83 85 87 89 92 94
93 92 91 90 89 88 88 87 87 87 87 87 87 86 86 86 86 86 86 86 86 85 85 84 84 85 86 86 85 83 81 79 78 78 78 79 80 82 84 86 88 90
92 91 90 89 89 88 87 87 87 87 87 86 86 86 85 85 85 85 84 84 85 85 84 84 84 84 86 86 85 83 81 79 78 78 77 78 79 81 83 85 86 87

ECMWFNIL_250_spd_033.txt.gz
Wind_Speed
111 112 113 112 111 108 105 102 99 95 92 89 87 85 84 84 84 85 87 89 92 95 98 100 102 104 105 107 108 109 111 112 113 114 115 116 117 118 118 119 120 120
115 117 117 115 112 109 105 101 97 93 90 88 86 85 84 84 84 85 86 88 91 94 97 99 102 105 106 108 110 111 113 114 115 116 118 118 119 120 121 121 122 122
120 120 119 116 113 109 104 99 95 92 89 87 86 86 85 85 85 86 86 88 90 92 95 99 102 104 107 109 111 113 114 116 117 118 119 121 122 122 123 124 124 125
124 123 120 117 112 108 103 98 95 92 90 89 88 88 88 88 88 89 89 90 91 92 94 97 101 104 107 109 112 114 116 117 119 120 121 123 124 125 125 126 127 127
126 124 120 116 111 106 102 98 96 94 93 92 91 91 91 92 92 92 93 93 94 95 96 97 99 102 105 108 111 114 116 118 120 122 123 125 126 127 128 128 129 130
127 123 119 114 109 105 101 99 98 96 95 94 94 93 93 93 94 94 95 95 96 97 98 99 100 102 104 106 109 112 115 117 120 122 124 125 127 128 129 130 131 132
126 122 117 111 107 104 102 100 99 97 96 95 94 93 93 93 93 94 94 95 96 97 98 99 100 102 103 105 107 109 111 114 116 119 121 123 125 127 129 130 131 132
123 118 113 108 105 103 101 100 98 97 95 94 94 93 93 93 93 93 93 93 94 95 95 96 98 99 101 102 104 106 108 110 112 114 116 119 121 123 125 127 129 130
119 114 109 106 103 101 99 97 96 95 94 94 93 93 93 93 93 93 93 93 93 93 94 94 95 96 97 98 99 101 103 105 107 109 111 114 116 118 120 122 124 125
116 111 106 103 101 99 97 95 94 94 93 93 93 93 93 93 93 93 93 93 93 93 93 93 93 94 94 95 96 97 98 100 101 103 105 107 109 111 113 115 117 119
113 108 105 102 99 97 95 94 93 93 93 93 93 93 93 93 93 93 93 93 93 93 93 93 93 94 94 94 94 95 96 97 98 100 101 103 104 106 107 109 110 112
111 107 104 101 99 97 95 94 94 94 93 93 93 93 93 92 92 92 92 93 93 93 93 93 94 94 94 94 94 95 95 96 97 98 100 101 102 103 105 105 106 108
110 107 104 101 99 97 96 95 95 94 94 93 93 92 92 92 92 92 92 92 93 93 94 94 94 95 95 95 95 95 96 96 97 98 99 100 101 102 103 104 104 105
110 107 104 101 99 98 97 96 95 95 94 93 93 92 91 91 91 91 92 92 93 93 93 94 94 95 95 95 95 96 96 97 97 98 98 99 100 101 102 102 102 103
109 106 104 102 100 99 97 96 95 95 94 93 93 92 91 91 91 91 92 92 93 93 94 94 95 95 95 95 96 96 96 97 97 98 98 99 100 100 101 101 101 101
108 106 104 102 101 99 97 96 95 94 93 93 93 92 91 91 91 91 92 92 92 93 93 94 95 95 95 95 96 96 96 96 96 97 97 98 98 99 99 99 100 100
108 106 104 102 100 98 97 95 94 93 93 92 92 91 91 90 90 90 91 91 91 92 93 93 94 95 95 95 94 94 94 93 94 94 95 96 96 96 97 97 98 98
107 106 104 102 100 98 96 95 94 93 92 91 91 90 90 89 89 89 89 89 90 90 91 92 93 93 93 93 92 92 91 91 91 92 93 94 94 94 95 95 96 97
107 105 103 101 99 97 96 94 93 92 91 90 90 89 89 88 88 88 88 88 88 89 89 90 91 91 91 90 90 90 89 89 89 90 91 91 92 92 92 93 94 94
106 104 102 100 98 96 95 93 92 91 90 89 89 88 88 87 87 86 86 86 86 87 87 88 89 89 88 88 87 87 87 87 87 87 88 88 88 89 89 90 91 92
106 104 101 99 97 96 94 93 92 91 90 89 88 87 86 86 85 85 85 85 85 85 86 86 87 87 86 85 85 85 84 84 84 85 85 85 86 86 87 88 89 90
105 103 101 99 97 95 94 93 91 90 89 88 87 86 85 84 84 84 84 84 84 84 85 85 86 85 84 84 84 83 83 82 82 82 82 83 83 83 84 85 86 87
105 103 101 99 97 95 94 92 91 89 88 87 86 85 84 84 83 83 83 83 84 84 84 84 84 84 83 83 83 82 81 80 80 80 80 81 81 81 82 83 84 85
105 103 101 99 97 95 93 92 90 89 87 86 85 84 83 83 82 82 82 83 83 83 83 83 83 83 83 83 82 81 80 79 79 79 79 79 79 79 80 81 82 82
104 102 100 98 96 94 93 91 90 88 86 85 84 83 82 82 82 82 82 82 83 83 82 82 82 82 82 82 82 81 80 79 78 78 78 78 77 78 78 79 79 80
101 100 98 96 95 93 92 90 88 87 85 84 83 82 81 81 81 81 82 82 83 83 82 82 81 81 82 82 81 80 79 78 77 76 76 75 75 76 77 77 78 78

ECMWFNIL_250_spd_036.txt.gz
Wind_Speed
91 92 93 95 97 98 100 102 104 106 107 108 110 111 111 110 109 107 105 103 100 98 96 95 94 94 94 95 95 96 97 98 99 100 101 102 104 107 108 110 112 113
93 94 96 98 100 102 104 107 109 110 111 112 114 115 114 113 111 109 106 103 100 97 95 93 92 92 93 93 94 95 96 98 99 100 101 102 104 106 108 110 112 114
95 97 100 102 105 108 111 113 114 114 115 117 118 118 117 115 113 110 107 103 100 97 95 93 92 91 92 92 93 94 95 97 98 100 102 103 104 106 108 110 112 114
98 101 104 106 109 113 115 117 118 118 120 121 121 120 118 116 113 110 106 103 100 97 95 93 92 91 90 90 91 92 93 94 96 98 100 102 104 106 107 109 111 113
102 105 107 110 114 117 119 120 121 123 124 124 123 120 118 115 112 108 104 102 99 97 95 93 91 90 89 89 89 89 90 91 93 95 97 99 101 103 106 108 110 112
105 109 112 115 119 121 122 123 125 126 126 124 122 119 116 113 109 105 102 100 98 96 94 92 91 90 89 88 88 88 89 89 91 92 93 95 97 99 101 104 106 109
109 112 116 120 122 124 125 126 127 127 126 124 121 117 113 109 106 102 100 98 96 94 93 92 91 90 90 89 88 88 88 88 89 90 91 93 94 96 98 100 102 104
114 117 121 124 126 127 128 129 128 127 125 123 119 115 110 106 103 100 98 96 95 94 93 92 91 91 90 89 89 89 88 88 89 90 91 92 93 94 96 97 99 100
120 123 126 127 129 129 130 129 128 126 124 121 116 112 107 104 101 99 97 96 95 94 93 92 91 91 90 89 89 88 89 89 89 90 91 92 93 94 95 96 97 99
126 128 129 130 131 131 131 129 127 125 122 118 113 109 106 103 101 99 97 96 95 94 93 93 92 91 90 89 88 88 88 89 90 90 91 92 93 94 95 96 97 98
130 131 132 133 133 132 131 129 127 124 120 115 111 108 105 102 100 99 97 96 95 94 93 93 92 90 89 89 88 88 89 89 90 91 91 92 93 94 95 96 97 98
133 134 134 135 134 133 131 129 126 122 117 113 110 107 104 102 101 99 97 96 95 94 93 92 91 90 89 89 89 89 90 90 90 91 91 92 93 94 95 95 96 97
135 136 137 137 136 134 131 128 124 120 115 112 109 106 104 102 101 99 97 95 93 92 92 91 91 90 89 89 89 90 90 90 91 91 92 93 93 94 94 95 95 96
137 138 139 139 137 135 132 127 122 118 114 110 107 105 104 102 100 98 96 94 92 91 91 90 90 89 89 89 89 90 90 90 91 92 92 93 93 94 94 94 94 94
139 140 140 139 137 135 130 125 120 115 112 109 106 105 103 101 99 97 95 93 91 90 90 89 89 88 88 88 89 89 89 90 91 91 92 93 93 94 94 94 94 93
142 141 140 139 137 133 128 123 118 114 110 108 105 104 102 100 98 96 94 93 91 90 89 88 88 87 87 87 87 88 88 89 90 91 92 93 93 94 94 94 94 93
143 142 141 138 135 130 125 120 116 112 109 107 104 102 100 98 97 95 94 92 91 90 88 87 86 85 85 85 85 86 86 87 88 89 90 91 92 92 93 93 93 93
145 143 140 137 133 128 123 118 115 111 109 106 104 101 99 97 96 94 92 91 89 88 87 86 85 84 84 83 83 83 84 84 86 87 88 88 89 90 90 91 92 92
145 142 139 135 130 125 121 117 114 111 109 106 103 100 98 96 94 92 90 89 87 86 85 85 84 83 82 82 81 81 82 82 83 84 84 85 86 87 88 89 89 90
145 141 137 133 128 124 120 117 114 111 108 105 102 100 98 95 93 91 89 88 87 86 85 84 83 82 81 80 80 80 80 80 80 81 81 82 82 83 84 85 86 87
145 141 136 131 127 123 120 117 114 110 107 104 102 100 98 95 93 91 89 88 87 86 85 83 82 81 80 79 79 78 78 79 79 79 79 80 80 81 82 82 83 84
144 139 133 128 125 122 119 116 113 110 107 105 102 100 97 95 93 91 90 89 87 86 85 84 82 81 80 79 78 78 78 78 78 78 79 79 80 80 81 82 82 83
141 135 130 127 124 121 118 116 113 110 107 104 102 99 97 95 93 92 90 89 88 87 85 84 82 81 80 79 79 78 78 78 78 78 79 79 79 80 80 81 81 81
137 132 129 126 124 121 118 115 112 110 107 103 101 98 96 94 93 91 90 89 88 86 85 83 82 81 80 80 79 78 78 78 78 78 78 78 78 78 79 79 79 78
134 131 128 125 123 120 117 114 111 108 105 102 99 97 95 93 92 90 89 88 87 86 84 82 81 80 80 79 79 78 78 77 77 77 77 77 77 77 77 76 76 76
132 129 126 124 121 118 115 112 108 105 102 99 97 95 94 92 91 89 88 87 86 85 83 82 80 80 79 79 78 78 77 77 77 77 77 77 76 76 75 75 75 75

ECMWFNIL_250_spd_042.txt.gz
Wind_Speed
81 83 85 87 88 90 92 93 94 94 95 96 98 100 102 103 105 107 110 111 111 111 110 110 110 110 110 111 112 112 112 113 114 114 116 117 118 120 121 122 122 122
82 84 86 87 89 91 92 94 95 96 98 99 101 103 105 107 109 111 112 112 111 110 110 111 111 111 111 112 112 113 113 114 115 116 117 119 120 121 122 122 122 121
82 84 85 87 88 90 91 93 95 97 99 101 104 106 108 110 111 112 112 111 110 109 110 112 112 112 112 112 113 113 114 115 116 117 119 120 121 121 121 121 121 119
83 84 86 87 89 90 92 94 96 98 101 103 105 108 109 110 111 110 110 110 109 110 111 111 111 111 111 112 112 113 114 115 117 118 120 120 121 121 121 120 119 118
85 86 88 90 91 92 94 96 98 101 103 105 107 108 109 109 109 109 109 109 109 110 110 110 110 111 112 112 113 114 115 116 118 119 120 121 121 121 120 119 118 116
87 89 90 91 92 94 96 98 100 102 104 106 107 107 108 108 108 107 107 108 108 109 109 110 111 112 112 113 114 115 116 118 119 121 121 121 121 120 119 118 116 114
89 90 91 92 94 96 98 100 102 103 104 105 106 106 107 107 106 106 107 108 108 109 109 110 111 112 113 114 115 116 118 119 121 122 122 121 121 119 118 116 113 111
90 92 93 94 96 99 100 102 103 104 105 105 106 106 106 106 106 106 107 107 108 109 109 110 111 112 113 115 116 118 119 121 122 122 122 121 120 118 116 113 111 109
92 93 94 96 99 100 102 103 104 105 106 106 106 106 106 106 106 107 107 107 108 109 110 111 112 113 114 116 117 119 121 122 122 122 121 120 118 116 113 111 109 107
94 95 97 99 100 102 103 104 105 105 106 106 106 106 106 106 106 107 107 108 109 109 111 112 113 114 116 117 120 122 123 123 123 122 120 118 116 113 111 110 108 106
96 98 99 101 102 103 104 104 105 105 105 105 105 105 106 106 106 107 108 108 109 110 111 113 114 116 118 120 122 123 124 123 122 121 119 116 113 111 110 108 107 105
99 100 101 102 103 104 104 104 104 105 105 105 105 105 106 106 107 107 108 109 110 111 113 114 116 118 121 123 124 125 124 123 121 119 117 114 111 109 108 107 105 103
101 102 102 103 104 104 104 104 104 104 105 105 106 106 107 107 107 108 109 110 112 113 115 117 119 122 124 125 126 125 124 122 120 117 115 112 110 108 106 104 102 101
102 102 103 104 105 105 104 104 105 105 106 106 107 107 108 108 108 109 111 112 114 116 118 121 123 125 126 127 126 125 123 120 118 116 113 111 108 106 104 102 100 99
103 103 104 105 105 105 105 105 106 106 107 108 108 109 109 109 110 111 113 115 117 120 122 125 126 127 128 127 126 123 121 119 116 114 112 110 107 105 103 101 99 97
104 104 105 105 105 106 106 106 107 108 109 109 110 110 110 111 112 114 116 119 121 124 126 128 129 129 128 127 124 122 119 117 115 113 111 108 106 104 101 99 98 96
105 105 106 106 106 107 107 108 109 110 111 111 111 112 112 114 116 118 120 123 126 129 130 132 132 131 128 126 123 120 118 116 114 113 110 108 105 102 100 98 96 94
106 106 107 107 107 108 109 110 111 112 113 113 113 114 115 117 120 122 125 128 130 133 134 135 134 131 128 125 122 119 117 115 114 112 109 107 104 101 98 96 94 92
107 107 108 109 109 110 112 113 114 115 115 115 116 117 120 122 125 127 130 133 135 137 137 137 135 132 128 125 122 119 117 115 114 111 108 105 103 100 97 95 92 90
108 109 110 111 112 113 115 116 117 117 117 118 120 123 125 128 130 133 136 138 139 140 140 139 136 132 128 125 122 120 118 116 113 110 107 104 101 99 96 93 90 87
110 111 113 114 115 116 117 118 119 120 121 123 126 128 131 133 136 139 141 143 143 143 143 140 137 132 128 125 123 120 118 115 113 109 106 103 100 97 94 91 88 85
113 114 116 117 118 119 120 122 123 124 126 129 131 134 136 139 142 144 146 147 148 147 145 141 136 131 128 125 123 121 118 115 112 108 105 101 98 95 92 89 86 84
116 117 119 120 121 122 124 125 127 129 131 134 136 139 142 144 147 149 151 152 151 149 145 141 136 131 127 125 123 121 118 115 111 107 103 99 96 93 91 88 85 83
119 121 121 122 123 125 127 129 131 134 136 138 141 144 147 149 152 154 155 155 153 150 144 139 135 131 127 125 123 120 117 113 109 104 101 97 94 92 90 87 85 82
122 123 124 125 127 129 131 133 136 138 140 143 146 148 151 153 156 157 158 156 153 148 143 138 134 131 128 125 122 119 115 111 106 102 99 96 94 92 90 87 84 82
124 125 127 129 131 133 136 138 140 142 145 147 150 152 154 156 158 160 159 156 152 146 141 136 133 131 128 124 121 117 113 108 104 101 98 95 93 92 89 86 84 81

ECMWFNIL_250_spd_045.txt.gz
Wind_Speed
69 69 70 71 72 73 74 75 75 77 78 79 81 82 84 85 87 88 90 91 93 94 97 99 101 103 106 107 109 110 110 111 111 111 111 111 111 111 112 113 114 115
69 70 70 71 72 73 75 76 77 78 80 82 83 85 86 87 89 90 92 93 95 97 99 101 103 105 107 108 109 110 111 111 111 111 111 111 111 112 113 114 115 116
70 70 71 72 74 75 76 78 79 80 82 84 85 86 88 90 91 93 94 95 97 99 101 103 104 106 108 109 110 111 111 112 112 112 111 111 112 113 114 115 116 117
71 72 73 75 76 78 78 79 80 82 84 85 87 89 90 92 93 94 96 97 99 101 103 104 106 107 109 110 111 112 112 112 112 112 112 112 113 114 115 116 117 118
73 74 76 77 78 79 80 81 83 84 86 88 89 90 92 93 94 96 98 100 102 103 105 106 107 108 110 111 112 112 113 112 112 112 113 113 114 115 116 117 118 119
76 76 78 79 80 81 82 83 85 87 88 89 90 91 93 94 96 98 100 102 104 105 106 108 109 110 111 112 113 113 113 113 113 113 114 114 115 116 116 117 118 120
78 79 80 81 82 83 84 86 88 89 90 91 92 93 94 96 98 100 103 104 106 107 108 109 110 111 112 113 113 113 113 113 113 114 114 115 116 116 117 118 119 120
81 82 83 84 85 86 87 89 90 92 92 92 93 95 96 98 101 103 105 106 107 108 109 110 111 113 113 114 114 113 113 113 114 114 115 116 116 117 117 118 119 121
83 84 85 86 88 89 91 92 93 93 93 93 95 97 99 101 103 105 106 108 109 109 110 111 112 113 114 114 114 113 113 114 115 115 116 116 117 118 118 119 120 121
86 87 88 89 91 92 93 93 94 93 93 94 96 98 100 102 105 106 108 109 109 110 111 111 112 113 114 114 114 113 114 114 115 116 117 117 118 118 118 119 121 122
87 89 90 92 93 93 94 95 95 94 95 96 99 102 103 105 107 108 109 109 110 110 111 111 112 113 114 114 114 114 114 115 116 116 117 118 119 119 119 120 122 123
89 91 92 94 94 95 96 97 97 97 98 100 103 105 106 107 108 109 109 109 110 110 111 111 112 113 113 114 114 114 115 115 116 117 118 119 120 120 120 121 122 123
91 93 94 96 96 97 98 98 99 99 101 103 105 107 108 108 109 109 109 109 110 110 111 112 112 112 113 114 114 115 115 116 117 118 120 121 121 121 122 122 123 123
94 95 96 97 98 98 99 100 101 102 103 105 106 108 108 108 109 109 109 110 111 111 112 112 112 112 113 114 114 115 115 116 118 120 121 122 122 122 123 123 123 123
96 96 97 97 98 99 101 102 103 103 104 105 107 108 108 108 108 109 110 111 112 112 113 112 113 113 114 114 115 115 116 118 120 122 123 123 123 124 124 124 124 122
96 96 96 97 98 100 101 102 103 103 104 105 106 107 107 108 108 109 111 112 113 113 113 113 114 115 115 115 115 116 118 120 122 124 124 124 125 126 126 125 124 121
95 96 97 98 99 100 101 102 103 104 104 105 106 107 107 108 109 111 113 114 114 114 115 116 117 117 116 117 117 119 121 123 125 126 126 126 127 127 127 126 123 120
96 97 98 99 100 101 102 103 104 104 105 105 106 107 108 109 111 113 114 115 115 116 117 119 119 119 118 119 120 122 124 125 127 128 128 128 128 128 128 126 123 120
98 98 99 100 101 103 104 104 105 105 106 106 107 108 110 112 114 115 116 116 118 119 121 121 121 121 121 122 124 126 127 127 129 130 131 131 131 129 128 125 123 121
99 100 101 102 103 104 105 106 107 107 107 108 109 111 113 115 117 117 118 119 121 122 123 124 124 124 125 126 128 129 129 130 131 133 133 133 132 130 128 125 123 121
101 102 104 105 106 106 107 108 109 109 110 111 113 115 117 118 119 120 121 123 124 125 126 127 128 129 129 130 131 132 132 133 134 135 135 135 133 130 127 125 123 121
103 105 106 107 108 109 109 110 111 112 113 115 117 119 120 122 123 124 125 127 128 129 130 132 133 134 134 134 135 135 136 137 138 138 137 136 132 129 127 125 123 121
106 108 109 110 110 111 112 113 114 116 118 120 121 123 124 125 127 128 129 131 132 133 135 137 138 138 138 138 138 139 139 140 141 139 137 134 131 128 127 125 123 120
109 111 112 112 113 113 115 116 118 120 122 124 125 126 128 129 130 132 133 135 136 138 140 141 142 142 142 142 142 142 143 143 142 139 135 132 130 128 127 125 122 118
112 113 114 115 115 117 118 120 122 125 126 127 129 130 131 132 134 136 137 138 140 142 143 144 146 146 146 146 145 145 145 143 140 136 133 130 129 128 126 124 120 117
115 116 116 117 119 120 122 124 126 128 129 131 132 133 134 136 137 139 140 142 144 145 146 148 149 150 150 148 147 147 145 142 137 134 131 129 128 127 125 122 118 116

ECMWFNIL_250_spd_048.txt.gz
Wind_Speed
66 66 67 67 68 69 69 70 70 71 72 72 73 73 74 75 77 79 81 83 84 86 87 88 89 90 91 93 94 96 97 98 97 98 99 102 104 106 108 110 112 113
67 67 68 68 69 69 70 70 71 71 72 73 74 75 76 78 80 82 84 85 87 88 89 90 91 92 93 94 96 97 98 98 97 99 102 105 107 109 110 112 113 114
67 68 69 69 70 70 70 71 71 73 74 75 77 78 80 82 83 85 86 88 89 90 90 91 92 93 94 96 97 98 99 99 100 103 106 108 110 111 112 113 114 115
68 69 70 70 70 71 71 72 73 75 76 78 80 81 83 84 86 87 89 90 90 91 92 92 93 95 96 97 99 100 101 102 104 107 110 111 112 113 114 115 115 116
69 69 70 70 71 72 73 74 76 77 79 80 82 83 85 87 88 90 90 91 92 92 93 94 95 96 98 99 100 101 103 106 108 110 111 112 113 114 114 115 115 115
69 70 71 72 73 74 75 77 78 80 81 82 84 86 88 89 90 91 92 92 93 94 94 95 96 97 98 99 101 103 106 108 109 110 111 112 113 113 114 114 114 115
70 72 73 74 75 76 78 79 80 82 83 85 87 89 90 91 92 92 92 93 94 94 94 95 96 97 98 99 101 104 106 108 109 111 111 112 112 113 113 114 114 115
72 74 75 76 77 79 80 81 83 84 86 88 89 91 92 92 92 92 92 93 93 93 94 95 96 97 99 100 103 105 107 109 110 111 112 112 112 113 114 114 115 116
74 76 77 79 80 81 82 84 85 87 89 90 91 92 93 93 92 92 92 92 92 93 94 96 97 99 100 102 104 106 108 109 110 112 112 113 113 114 114 115 116 118
76 78 79 81 82 83 84 86 88 89 91 92 92 93 93 92 91 91 92 92 93 94 96 97 99 101 103 104 106 107 109 110 112 113 113 114 114 115 116 117 118 119
78 79 81 82 84 85 87 88 89 90 91 92 92 93 92 91 91 92 93 94 95 96 98 99 101 103 105 106 107 108 110 112 113 114 114 115 115 116 117 119 120 121
79 81 82 84 86 87 88 89 90 90 91 91 92 92 91 91 93 94 95 96 97 98 100 102 104 105 106 108 108 110 112 113 114 115 115 115 116 118 119 120 122 122
81 83 84 86 87 88 89 89 89 89 90 90 91 92 92 93 95 96 97 97 99 100 102 104 105 106 108 109 110 111 113 114 115 116 116 117 118 119 121 122 123 124
83 84 85 86 87 88 89 89 89 90 90 91 92 93 94 95 97 97 98 99 100 102 104 105 106 108 109 110 111 113 115 115 116 117 118 119 120 121 122 123 125 125
84 85 85 87 88 89 90 90 91 92 93 93 94 95 96 97 98 98 99 101 102 104 105 107 108 110 111 112 113 115 116 116 117 119 120 121 122 123 124 125 126 127
85 86 87 89 89 91 92 93 94 94 94 94 95 96 97 98 99 99 101 103 104 106 107 109 111 112 113 114 115 116 117 118 120 121 123 124 125 126 127 128 128 128
88 89 90 91 92 93 94 95 95 95 95 96 97 98 99 99 100 101 103 105 107 109 110 111 113 114 115 116 117 118 119 120 122 124 125 126 127 128 129 130 130 130
91 92 93 93 94 95 95 95 95 95 96 97 99 100 100 101 102 104 106 108 110 111 112 114 115 117 118 118 119 120 121 123 124 126 128 129 130 131 131 132 132 131
93 94 94 95 95 95 96 95 96 96 98 99 100 101 102 102 104 106 109 111 112 114 115 116 118 119 120 120 121 123 124 125 126 128 130 132 133 133 133 133 133 132
95 95 95 95 95 96 96 96 97 98 99 100 101 102 104 105 107 109 112 114 115 117 118 119 121 121 122 123 124 125 126 127 129 131 133 134 135 135 135 135 134 134
95 94 94 94 95 95 96 97 98 99 101 102 103 105 107 109 110 112 115 117 118 120 121 122 123 124 124 125 127 127 128 130 132 134 135 137 137 138 137 136 136 135
93 92 93 94 95 96 97 99 100 102 103 104 106 108 110 112 114 116 118 120 121 123 124 125 126 127 128 128 129 131 132 133 135 136 138 139 140 140 138 137 137 136
92 93 94 96 97 99 100 102 103 105 106 108 110 112 113 115 117 119 121 123 124 125 126 128 129 130 131 132 133 134 135 136 137 139 140 141 142 140 139 138 137 136
95 96 98 99 101 102 104 105 107 108 110 112 114 116 117 119 121 123 125 126 127 128 130 131 133 134 135 136 137 138 139 139 140 141 142 142 142 140 139 138 137 135
99 100 102 103 105 106 107 109 111 113 115 116 118 120 122 123 125 127 128 129 131 132 133 135 136 138 139 140 141 141 142 142 143 143 143 142 141 140 139 138 135 132
104 105 106 108 109 111 112 114 115 117 119 121 123 124 126 127 129 130 131 133 134 136 137 138 140 142 143 143 144 144 144 144 144 144 143 142 140 139 138 135 132 129